Previsão horária em Juchowo

Hoje, 22 Junho, Terça-feira

Tempo Temperatura Precipitação Vento Pressão Humidade
00:00 +21°C° 0 mm 1 m/s 742 mmHg 93%
01:00 +20°C° 0 mm 1 m/s 742 mmHg 94%
02:00 +20°C° 0 mm 1 m/s 742 mmHg 95%
03:00 +19°C° 0 mm 2 m/s 742 mmHg 96%
04:00 +19°C° 0 mm 2 m/s 743 mmHg 97%
05:00 +19°C° 0 mm 2 m/s 743 mmHg 94%
06:00 +20°C° 0 mm 3 m/s 743 mmHg 90%
07:00 +20°C° 0 mm 3 m/s 744 mmHg 87%
08:00 +21°C° 0 mm 4 m/s 744 mmHg 82%
09:00 +22°C° 0 mm 4 m/s 745 mmHg 76%
10:00 +23°C° 0 mm 4 m/s 745 mmHg 71%
11:00 +22°C° 0 mm 4 m/s 745 mmHg 71%
12:00 +22°C° 0 mm 4 m/s 746 mmHg 71%
13:00 +21°C° 0 mm 4 m/s 746 mmHg 72%
14:00 +20°C° 0 mm 4 m/s 746 mmHg 73%
15:00 +20°C° 0 mm 4 m/s 747 mmHg 75%
16:00 +19°C° 0 mm 4 m/s 747 mmHg 77%
17:00 +18°C° 0 mm 4 m/s 747 mmHg 76%
18:00 +18°C° 0 mm 4 m/s 747 mmHg 76%
19:00 +17°C° 0 mm 3 m/s 747 mmHg 75%
20:00 +16°C° 0 mm 3 m/s 748 mmHg 77%
21:00 +14°C° 0 mm 3 m/s 748 mmHg 79%
22:00 +14°C° 0 mm 2 m/s 748 mmHg 81%
23:00 +14°C° 0 mm 2 m/s 748 mmHg 83%

Amanhã, 23 Junho, Quarta-feira

Tempo Temperatura Precipitação Vento Pressão Humidade
00:00 +13°C° 0 mm 2 m/s 749 mmHg 85%
01:00 +12°C° 0 mm 2 m/s 749 mmHg 87%
02:00 +12°C° 0 mm 2 m/s 749 mmHg 88%
03:00 +12°C° 0 mm 2 m/s 749 mmHg 89%
04:00 +12°C° 0 mm 2 m/s 749 mmHg 90%
05:00 +14°C° 0 mm 2 m/s 749 mmHg 83%
06:00 +15°C° 0 mm 2 m/s 750 mmHg 77%
07:00 +17°C° 0 mm 3 m/s 750 mmHg 71%
08:00 +19°C° 0 mm 3 m/s 750 mmHg 64%
09:00 +20°C° 0 mm 2 m/s 750 mmHg 58%
10:00 +23°C° 0 mm 2 m/s 750 mmHg 52%
11:00 +23°C° 0 mm 2 m/s 750 mmHg 50%
12:00 +24°C° 0 mm 2 m/s 750 mmHg 49%
13:00 +25°C° 0 mm 2 m/s 750 mmHg 48%
14:00 +25°C° 0 mm 3 m/s 750 mmHg 49%
15:00 +25°C° 0 mm 3 m/s 750 mmHg 50%
16:00 +25°C° 0 mm 3 m/s 750 mmHg 50%
17:00 +24°C° 0 mm 3 m/s 750 mmHg 57%
18:00 +21°C° 0 mm 3 m/s 750 mmHg 64%
19:00 +20°C° 0 mm 3 m/s 750 mmHg 71%
20:00 +18°C° 0 mm 3 m/s 750 mmHg 78%
21:00 +17°C° 0 mm 2 m/s 751 mmHg 85%
22:00 +15°C° 0 mm 2 m/s 751 mmHg 92%
23:00 +15°C° 0 mm 2 m/s 751 mmHg 92%

Depois de amanhã, 24 Junho, Quinta-feira

Tempo Temperatura Precipitação Vento Pressão Humidade
00:00 +14°C° 0 mm 1 m/s 751 mmHg 93%
01:00 +14°C° 0 mm 1 m/s 751 mmHg 93%
02:00 +14°C° 0 mm 1 m/s 750 mmHg 93%
03:00 +14°C° 0 mm 1 m/s 750 mmHg 93%
04:00 +13°C° 0 mm 1 m/s 750 mmHg 93%
05:00 +15°C° 0 mm 1 m/s 750 mmHg 85%
06:00 +18°C° 0 mm 1 m/s 750 mmHg 77%
07:00 +20°C° 0 mm 1 m/s 751 mmHg 69%
08:00 +21°C° 0 mm 1 m/s 750 mmHg 63%
09:00 +23°C° 0 mm 1 m/s 750 mmHg 57%
10:00 +24°C° 0 mm 2 m/s 750 mmHg 51%
11:00 +25°C° 0 mm 2 m/s 750 mmHg 49%
12:00 +26°C° 0 mm 2 m/s 750 mmHg 47%
13:00 +27°C° 0 mm 2 m/s 750 mmHg 45%
14:00 +27°C° 0 mm 2 m/s 749 mmHg 46%
15:00 +27°C° 0 mm 2 m/s 749 mmHg 48%
16:00 +26°C° 0 mm 3 m/s 749 mmHg 49%
17:00 +25°C° 0 mm 3 m/s 749 mmHg 55%
18:00 +22°C° 0 mm 3 m/s 749 mmHg 62%
19:00 +20°C° 0 mm 4 m/s 748 mmHg 68%
20:00 +19°C° 0 mm 3 m/s 749 mmHg 73%
21:00 +17°C° 0 mm 3 m/s 749 mmHg 78%
22:00 +16°C° 0 mm 3 m/s 749 mmHg 82%
23:00 +16°C° 0 mm 2 m/s 748 mmHg 84%

25 Junho, Sexta-feira

Tempo Temperatura Precipitação Vento Pressão Humidade
00:00 +15°C° 0 mm 2 m/s 748 mmHg 85%
01:00 +15°C° 0 mm 2 m/s 748 mmHg 86%
02:00 +15°C° 0 mm 2 m/s 748 mmHg 86%
03:00 +15°C° 0 mm 2 m/s 747 mmHg 86%
04:00 +15°C° 0 mm 2 m/s 747 mmHg 86%
05:00 +16°C° 0.5 mm 2 m/s 747 mmHg 86%
06:00 +16°C° 0.5 mm 1 m/s 747 mmHg 86%
07:00 +18°C° 0.5 mm 1 m/s 747 mmHg 86%
08:00 +18°C° 0.4 mm 1 m/s 747 mmHg 84%
09:00 +18°C° 0.4 mm 2 m/s 747 mmHg 82%
10:00 +18°C° 0.4 mm 2 m/s 747 mmHg 81%
11:00 +18°C° 0.1 mm 2 m/s 747 mmHg 81%
12:00 +18°C° 0.1 mm 2 m/s 747 mmHg 82%
13:00 +18°C° 0.1 mm 2 m/s 748 mmHg 83%
14:00 +18°C° 0 mm 2 m/s 748 mmHg 83%
15:00 +18°C° 0 mm 2 m/s 748 mmHg 83%
16:00 +17°C° 0 mm 2 m/s 748 mmHg 83%
17:00 +17°C° 0 mm 3 m/s 748 mmHg 85%
18:00 +17°C° 0 mm 3 m/s 748 mmHg 86%
19:00 +16°C° 0 mm 3 m/s 748 mmHg 88%
20:00 +16°C° 0 mm 3 m/s 748 mmHg 89%
21:00 +16°C° 0 mm 3 m/s 748 mmHg 91%
22:00 +16°C° 0 mm 3 m/s 748 mmHg 92%
23:00 +16°C° 0.1 mm 3 m/s 748 mmHg 93%

26 Junho, Sábado

Tempo Temperatura Precipitação Vento Pressão Humidade
00:00 +16°C° 0.1 mm 3 m/s 748 mmHg 93%
01:00 +16°C° 0.1 mm 3 m/s 748 mmHg 94%
02:00 +16°C° 0.1 mm 3 m/s 748 mmHg 95%
03:00 +14°C° 0.1 mm 3 m/s 748 mmHg 96%
04:00 +14°C° 0.1 mm 3 m/s 748 mmHg 97%
05:00 +14°C° 0 mm 4 m/s 748 mmHg 96%
06:00 +15°C° 0 mm 4 m/s 748 mmHg 95%
07:00 +15°C° 0 mm 4 m/s 748 mmHg 95%
08:00 +15°C° 0.1 mm 4 m/s 748 mmHg 93%
09:00 +15°C° 0.1 mm 4 m/s 748 mmHg 91%
10:00 +17°C° 0.1 mm 4 m/s 748 mmHg 89%
11:00 +17°C° 0 mm 4 m/s 748 mmHg 85%
12:00 +18°C° 0 mm 4 m/s 748 mmHg 81%
13:00 +19°C° 0 mm 4 m/s 748 mmHg 76%
14:00 +19°C° 0 mm 4 m/s 749 mmHg 76%
15:00 +18°C° 0 mm 4 m/s 749 mmHg 76%
16:00 +18°C° 0 mm 4 m/s 749 mmHg 76%
17:00 +18°C° 0 mm 4 m/s 748 mmHg 77%
18:00 +18°C° 0 mm 3 m/s 748 mmHg 78%
19:00 +17°C° 0 mm 3 m/s 748 mmHg 79%
20:00 +16°C° 0 mm 3 m/s 748 mmHg 84%
21:00 +15°C° 0 mm 2 m/s 748 mmHg 89%
22:00 +14°C° 0 mm 2 m/s 749 mmHg 95%
23:00 +14°C° 0 mm 2 m/s 748 mmHg 96%

27 Junho, Domingo

Tempo Temperatura Precipitação Vento Pressão Humidade
00:00 +14°C° 0 mm 2 m/s 748 mmHg 96%
01:00 +13°C° 0 mm 2 m/s 748 mmHg 97%
02:00 +14°C° 0 mm 2 m/s 748 mmHg 97%
03:00 +14°C° 0 mm 2 m/s 748 mmHg 97%
04:00 +15°C° 0 mm 2 m/s 748 mmHg 96%
05:00 +14°C° 0 mm 3 m/s 748 mmHg 94%
06:00 +16°C° 0 mm 3 m/s 748 mmHg 92%
07:00 +16°C° 0 mm 3 m/s 748 mmHg 90%
08:00 +18°C° 0.1 mm 3 m/s 748 mmHg 84%
09:00 +19°C° 0.1 mm 4 m/s 749 mmHg 77%
10:00 +21°C° 0.1 mm 4 m/s 749 mmHg 70%
11:00 +21°C° 0.1 mm 4 m/s 749 mmHg 69%
12:00 +21°C° 0.1 mm 4 m/s 749 mmHg 68%
13:00 +21°C° 0.1 mm 4 m/s 749 mmHg 68%
14:00 +21°C° 0.1 mm 4 m/s 749 mmHg 68%
15:00 +21°C° 0.1 mm 4 m/s 749 mmHg 68%
16:00 +22°C° 0.1 mm 3 m/s 749 mmHg 68%
17:00 +21°C° 0.1 mm 3 m/s 749 mmHg 72%
18:00 +20°C° 0.1 mm 3 m/s 749 mmHg 76%
19:00 +20°C° 0.1 mm 2 m/s 749 mmHg 80%
20:00 +18°C° 0 mm 2 m/s 749 mmHg 84%
21:00 +17°C° 0 mm 2 m/s 749 mmHg 88%
22:00 +16°C° 0 mm 1 m/s 749 mmHg 93%
23:00 +15°C° 0 mm 2 m/s 749 mmHg 93%
Mostrar mais

Necessitamos do seu Consentimento

A Meteoprog e os seus Fornecedores de Serviços podem armazenar e aceder a dados pessoais como cookies, identificadores do dispositivo ou outras tecnologias semelhantes existentes no seu dispositivo e processar estes dados para personalizar conteúdos e anúncios, assim como funcionalidades nas redes sociais e análise de tráfego.

  • Armazenar e/ou aceder a informações no seu dispositivo

    Os cookies, identificadores do dispositivo ou outras informações podem ser armazenados ou acedidos no seu dispositivo, para os fins acima indicados.

  • Anúncios e conteúdos personalizados, medição de anúncios e conteúdos, dados sobre o público-alvo e desenvolvimento de produtos

    Os anúncios e os conteúdos podem ser personalizados com base num perfil. Podem ser adicionados dados adicionais para uma maior personalização dos anúncios e dos conteúdos. A eficácia dos anúncios e dos conteúdos pode ser medida. Podem ser obtidas informações sobre o público que visualizou os anúncios e os conteúdos. Estes dados podem ser usados para desenvolver ou melhorar sistemas, softwares ou a experiência do utilizador.

Ao clicar em "Eu concordo”, permitirá o uso de cookies, identificadores do dispositivo e web beacons mencionados ou outras tecnologias semelhantes. As configurações do navegador do seu dispositivo podem ser alteradas.

Para certos fins, podem ser invocados interesses legítimos ao invés de consentimento. Pode ler mais informação sobre este assunto na nossa Política de Privacidade e Cookies.